Regional Weather Roundup
Issued by NWS

Home | Current Version | Previous Version | Text Only | Print | Product List | Glossary Off
Versions: 1 2 3 4 5 6 7 8 9 10 11 12 13 14 15 16 17 18 19 20 21 22 23 24 25 26 27 28 29 30 31 32 33 34 35 36 37 38 39 40 41 42 43 44 45 46 47 48 49 50

000
ASUS43 KMPX 302110
RWRMN
WEATHER ROUNDUP FOR MINNESOTA
NATIONAL WEATHER SERVICE TWIN CITIES/CHANHASSEN MN
400 PM CDT THU JUL 30 2015


NOTE: "FAIR" INDICATES FEW OR NO CLOUDS BELOW 12,000 FEET WITH NO
SIGNIFICANT WEATHER AND/OR OBSTRUCTIONS TO VISIBILITY. N/A MEANS
CURRENT SKY AND/OR WEATHER CONDITIONS ARE NOT AVAILABLE.

MNZ060>063-068>070-302200-
   Twin Cities Metro

CITY           SKY/WX    TMP DP  RH WIND       PRES   REMARKS
TWIN CITIES    SUNNY     84  56  38 NW18      30.04F
ST PAUL        SUNNY     84  55  36 W17G26    30.03F
CRYSTAL        SUNNY     84  54  35 W15G25    30.03F
BLAINE         MOSUNNY   84  54  34 W17G25    30.03F
LAKEVILLE      SUNNY     81  57  44 W10G17    30.06F
EDEN PRAIRIE   SUNNY     85  59  41 W12G18    30.04F
SOUTH ST PAUL  SUNNY     84  53  33 W17       30.03F
LAKE ELMO      FAIR      81  59  47 W17       30.04F
$$
MNZ001>005-007-008-013>017-022>024-027-028-302200-
   Northwest Minnesota

CITY           SKY/WX    TMP DP  RH WIND       PRES   REMARKS
BEMIDJI        MOSUNNY   80  53  39 W22G29    29.99S
HALLOCK        PTSUNNY   81  50  34 NW18G28   29.95S
ROSEAU         SUNNY     77  59  53 W10G21    29.93S
WARROAD        MOSUNNY   79  57  47 W16G24    29.91F
THIEF RVR FALL MOSUNNY   79  52  38 W15G21    29.98S
CROOKSTON      SUNNY     81  55  41 NW17G23   29.99F
FOSSTON        MOSUNNY   79  50  36 W17G26    30.01S
DETROIT LAKES  SUNNY     81  54  39 NW14G25   30.05F
MOORHEAD       MOSUNNY   81  57  44 NW17G23   30.03F
PARK RAPIDS    PTSUNNY   80  51  36 W24G31    30.02S
MAHNOMEN       FAIR      77  56  47 W12G22    30.02S
$$
MNZ006-009>011-018-025>026-302200-
   North Central Minnesota

CITY           SKY/WX    TMP DP  RH WIND       PRES   REMARKS
BAUDETTE       MOSUNNY   79  52  38 W24G30    29.90F
FLAG ISLAND    MOSUNNY   77  54  44 W20G30    29.87S
INTL FALLS     MOSUNNY   78  56  46 W18G26    29.88F
WASKISH        MOSUNNY   79  59  50 W16       29.94S
BIG FORK       MOSUNNY   79  55  44 W12G18    29.94S
LONGVILLE      MOSUNNY   79  54  41 W13G20    29.99S
GRAND RAPIDS   MOSUNNY   81  50  34 NW21G26   29.97S
CRANE LAKE     MOSUNNY   75  57  53 W9G16     29.90S
ORR            MOSUNNY   81  52  36 W14       29.88S
COOK           MOSUNNY   75  55  50 W14       29.92S
WALKER         FAIR      77  53  42 W21G29    29.99F
$$
MNZ012-019>021-037-302200-
   Northeast Minnesota

CITY           SKY/WX    TMP DP  RH WIND       PRES   REMARKS
DULUTH         MOSUNNY   81  51  35 W18G32    29.94S
ELY            LGT RAIN  70  57  64 NW9G24    29.90S
HIBBING        SUNNY     79  50  36 W16G25    29.93F
EVELETH        MOSUNNY   81  50  34 W18G25    29.93S
DULUTH HARBOR  MOSUNNY   82  55  39 W22       29.91F
TWO HARBORS    MOSUNNY   82  61  47 W9G18     29.89F
SILVER BAY     MOSUNNY   79  57  47 SW7       29.88F
GRAND MARAIS     N/A     55  47  74 W6G17     29.84F
G MARAIS ARPRT MOSUNNY   73  48  40 W8G18     29.89F
$$
MNZ029>031-032-039>041-046>048-054>057-064-302200-
   West Central Minnesota

CITY           SKY/WX    TMP DP  RH WIND       PRES   REMARKS
FERGUS FALLS   MOSUNNY   81  57  44 W17G25    30.04F
WHEATON        SUNNY     81  61  50 W8        30.08F
MORRIS         SUNNY     82  61  47 W9        30.06F
ALEXANDRIA     SUNNY     81  57  43 W17G24    30.08F
ELBOW LAKE     FAIR      80  58  47 W13G21    30.06F
WADENA         MOSUNNY   81  54  39 W12G21    30.04S
GLENWOOD       SUNNY     81  57  44 W14       30.08F
APPLETON       SUNNY     86  54  32 W14       30.06F
BENSON         SUNNY     84  57  39 W7        30.07F
ORTONVILLE     SUNNY     84  54  34 NW9       30.07F
MADISON        SUNNY     86  52  30 W12G17    30.08F
WILLMAR        FAIR      82  61  47 W12       30.09F
$$
MNZ033>034-036-042>043-049>051-058-059-302200-
   Central Minnesota

CITY           SKY/WX    TMP DP  RH WIND       PRES   REMARKS
ST CLOUD       SUNNY     83  54  36 W16G26    30.04F
SAUK CENTRE    FAIR      80  58  47 W15G26    30.06F
PAYNESVILLE    SUNNY     81  52  36 SW17G24   30.07F
AITKIN         SUNNY     82  54  36 W9G23     29.98S
PINE RIVER     PTSUNNY   79  55  44 NW18G25   30.03S
BRAINERD       MOSUNNY   80  53  39 W15G23    30.01F
STAPLES        MOSUNNY   77  52  41 W9G24     30.03F
LONG PRAIRIE   FAIR      81  54  39 W17G24    30.07S
LITTLE FALLS   MOSUNNY   81  48  32 W13G23    30.04S
LITCHFIELD     SUNNY     82  55  39 W10G16    30.07F
BUFFALO        SUNNY     82  53  36 W13G20    30.06F
MAPLE LAKE     SUNNY     82  57  42 W12G17    30.06F
$$
MNZ037-044-045-052-053-302200-
   East Central Minnesota

CITY           SKY/WX    TMP DP  RH WIND       PRES   REMARKS
PRINCETON      SUNNY     84  57  39 W12       30.03S
MORA           SUNNY     79  54  41 W13G20    30.02S
CAMBRIDGE      SUNNY     84  61  45 NW15      30.00F
RUSH CITY      MOSUNNY   82  56  41 W9G20     30.01S
MOOSE LAKE     MOSUNNY   81  54  39 W13G21    29.96S
HINCKLEY       FAIR      81  55  41 W8G21     29.99S
CLOQUET        MOSUNNY   81  46  30 W15G25    29.95F
MCGREGOR       SUNNY     81  50  34 W16G24    29.98F
$$
MNZ071>073-080-081-089-090-097-098-302200-
   Southwest Minnesota

CITY           SKY/WX    TMP DP  RH WIND       PRES   REMARKS
MONTEVIDEO     SUNNY     88  61  40 NW6       30.09F
GRANITE FALLS  SUNNY     83  59  43 SW8       30.09F
CANBY          SUNNY     85  51  30 W13       30.10F
MARSHALL       SUNNY     84  52  32 W12       30.11F
REDWOOD FALLS  SUNNY     85  55  35 W12       30.08F
OLIVIA         SUNNY     81  55  41 W9        30.08F
PIPESTONE      SUNNY     82  57  42 W3        30.14F
WINDOM         SUNNY     84  55  37 W9        30.12F
WORTHINGTON    SUNNY     82  57  42 W8        30.14F
JACKSON        SUNNY     84  59  42 W7        30.13F
TRACY          SUNNY     84  59  42 NW5       30.12F
SLAYTON        SUNNY     85  55  36 CALM      30.14F
$$
MNZ065>067-074>077-082>085-091>093-302200-
   South Central Minnesota

CITY           SKY/WX    TMP DP  RH WIND       PRES   REMARKS
MANKATO        SUNNY     82  54  36 NW13      30.09S
NEW ULM        SUNNY     82  54  36 W12       30.09F
ST JAMES       SUNNY     86  55  35 W10       30.11F
FAIRMONT       SUNNY     84  55  37 W7        30.11F
GLENCOE        SUNNY     83  61  47 W13G20    30.07F
FARIBAULT      SUNNY     82  61  47 W12       30.08F
OWATONNA       SUNNY     82  55  39 W13       30.09F
WASECA         SUNNY     79  59  50 W8        30.11S
ALBERT LEA     SUNNY     82  54  36 W5        30.11S
$$
MNZ078>079-086>088-094>096-302200-
   Southeast Minnesota

CITY           SKY/WX    TMP DP  RH WIND       PRES   REMARKS
ROCHESTER      SUNNY     80  59  48 NW15      30.09F
RED WING       SUNNY     86  54  32 W12G18    30.02F
STANTON        SUNNY     83  57  41 W14       30.05F
DODGE CENTER   SUNNY     81  55  41 W16       30.09F
WINONA         SUNNY     82  54  36 NW13      30.03F
AUSTIN         SUNNY     84  54  34 NW14      30.09F
PRESTON        SUNNY     80  55  42 NW17      30.09F
$$
ABBREVIATIONS USED IN REMARKS
   TC - TEMPERATURES IN CELSIUS
  WCI - WIND CHILL INDEX
   HX - HEAT INDEX
  VSB - VISIBILITY
$$


USA.gov is the U.S. government's official web portal to all federal, state and local government web resources and services.